SCP
0 0 0 0 0 0 0 0 0 0 0 0 0 0 0 0 0 0 0 0 0 0 0 0 0 0 0 0 0 0 0 0 0 0 0 0 0 0
0 0 0 0 0 0 0 0 0 0 0 0 0 0 0 0 0 0 0 0 0 0 0 0 0 0 0 0 0 0 0 0 0 0 0 0 0 0
0 0 0 0 0 0 0 0 0 0 0 0 0 0 0 0 0 0 0 0 0 0 0 0 0 0 0 0 0 0 0 0 0 0 0 0 0 0
0 0 0 0 0 0 0 0 0 0 0 0 0 0 0 0 0 0 0 0 0 0 0 0 0 0 0 0 0 0 0 0 0 0 0 0 0 0
0 0 0 0 0 0 0 0 0 0 0 0 0 0 0 0 0 0 0 0 0 0 0 0 0 0 0 0 0 0 0 0 0 0 0 0 0 0
0 0 0 0 0 0 0 0 0 0 0 0 0 0 0 0 0 0 0 0 0 0 0 0 0 0 0 0 0 0 0 0 0 0 0 0 0 0
0 0 0 0 0 0 0 0 0 0 0 0 0 0 0 0 0 0 0 0 0 0 0 0 0 0 0 0 0 0 0 0 0 0 0 0 0 0
0 0 0 0 0 0 0 0 0 0 0 0 0 0 0 0 0 0 0 0 0 0 0 0 0 0 0 0 0 0 0 0 0 0 0 0 0 0
0 0 0 0 0 0 0 0 0 0 0 0 0 0 0 0 0 0 0 0 0 0 0 0 0 0 0 0 0 0 0 0 0 0 0 0 0 0
0 0 0 0 0 0 0 0 0 0 0 0 0 0 0 0 0 0 0 0 0 0 0 0 0 0 0 0 0 0 0 0 0 0 0 0 0 0
0 0 0 0 0 0 0 0 0 0 0 0 0 0 0 0 0 0 0 0 0 0 0 0 0 0 0 0 0 0 0 0 0 0 0 0 0 0
0 0 0 0 0 0 0 0 0 0 0 0 0 0 0 0 0 0 0 0 0 0 0 0 0 0 0 0 0 0 0 0 0 0 0 0 0 0
0 0 0 0 0 0 0 0 0 0 0 0 0 0 0 0 0 0 0 0 0 0 0 0 0 0 0 0 0 0 0 0 0 0 0 0 0 0
0 0 0 0 0 0 0 0 0 0 0 0 0 0 0 0 0 0 0 0 0 0 0 0 0 0 0 0 0 0 0 0 0 0 0 0 0 0
0 0 0 0 0 0 0 0 0 0 0 0 0 0 0 0 0 0 0 0 0 0 0 0 0 0 0 0 0 0 0 0 0 0 0 0 0 0
0 0 0 0 0 0 0 0 0 0 0 0 0 0 0 0 0 0 0 0 0 0 0 0 0 0 0 0 0 0 0 0 0 0 0 0 0 0
0 0 0 0 0 0 0 0 0 0 0 0 0 0 0 0 0 0 0 0 0 0 0 0 0 0 0 0 0 0 0 0 0 0 0 0 0 0
0 0 0 0 0 0 0 0 0 0 0 0 0 0 0 0 0 0 0 0 0 0 0 0 0 0 0 0 0 0 0 0 0 0 0 0 0 0
0 0 0 0 0 0 0 0 0 0 0 0 0 0 0 0 0 0 0 0 0 0 0 0 0 0 0 0 0 0 0 0 0 0 0 0 0 0
0 0 0 0 0 0 0 0 0 0 0 0 0 0 0 0 0 0 0 0 0 0 0 0 0 0 0 0 0 0 0 0 0 0 0 0 0 0
0 0 0 0 0 0 0 0 0 0 0 0 0 0 0 0 0 0 0 0 0 0 0 0 0 0 0 0 0 0 0 0 0 0 0 0 0 0
0 0 0 0 0 0 0 0 0 0 0 0 0 0 0 0 0 0 0 0 0 0 0 0 0 0 0 0 0 0 0 0 0 0 0 0 0 0
0 0 0 0 0 0 0 0 0 0 0 0 0 0 0 0 0 0 0 0 0 0 0 0 0 0 0 0 0 0 0 0 0 0 0 0 0 0
Wind_Speed
2 2 2 2 2 2 2 2 3 6 7 4 3 3 4 4 7 5 6 12 16 17 17 17 17 17 18 19 19 20 19 19 19 19 19 20 20 20
1 1 2 2 2 2 2 2 3 4 7 4 4 4 5 6 10 7 7 15 16 17 18 17 17 17 18 19 19 20 19 19 19 19 20 20 20 19
1 1 2 2 2 2 2 2 2 3 7 7 4 4 5 6 7 6 6 6 8 16 17 17 17 18 18 19 19 19 20 19 19 19 19 19 19 19
2 2 3 2 2 2 2 3 3 4 5 8 7 5 6 6 6 7 7 7 7 14 17 17 17 18 18 18 19 19 18 18 18 18 18 19 19 19
2 2 3 3 4 3 3 4 4 4 4 6 8 6 5 5 6 7 7 6 8 11 14 15 16 18 18 18 19 19 18 18 18 18 18 18 18 18
2 2 3 3 4 4 4 4 4 4 5 5 6 6 6 5 5 6 7 5 7 8 10 11 15 17 17 18 19 19 18 17 17 17 17 17 16 17
2 2 3 4 6 5 5 4 4 4 5 5 6 6 6 5 5 5 7 7 7 5 6 7 8 7 8 13 16 18 17 17 17 17 16 16 15 15
2 3 3 4 6 8 9 9 8 6 6 6 6 7 8 7 6 6 7 7 7 3 5 8 6 7 7 6 14 17 17 17 17 16 15 15 15 16
2 3 4 4 6 5 7 9 9 11 10 8 7 8 8 7 7 8 7 7 8 6 6 9 6 8 7 9 17 17 17 16 16 15 15 15 16 16
2 3 4 5 5 6 5 5 6 6 8 7 7 8 8 8 7 7 8 8 8 6 4 7 6 7 8 7 14 16 16 16 16 16 15 15 16 16
3 3 4 5 8 10 6 5 7 6 8 10 11 11 13 13 10 5 5 6 8 6 3 4 6 8 7 7 8 14 15 16 16 16 16 16 16 15
3 4 6 7 10 10 5 5 7 7 6 7 8 9 8 9 11 6 5 6 6 6 3 3 5 6 7 4 4 5 8 13 16 16 16 16 16 10
3 4 4 9 11 10 8 5 8 8 6 6 6 6 5 5 5 5 5 5 6 6 4 4 5 4 6 8 6 5 5 6 7 9 12 14 15 11
3 4 5 10 11 10 8 8 10 8 4 4 5 5 5 5 5 5 6 6 6 8 7 6 5 6 7 8 8 6 5 6 6 7 6 10 12 13
4 7 8 10 9 7 8 10 8 4 4 4 5 5 5 5 5 5 5 5 5 6 6 6 6 6 6 7 8 7 8 6 5 5 6 6 6 6
4 5 8 8 7 7 7 5 4 3 4 4 5 4 4 4 4 4 4 4 4 5 4 5 6 6 6 7 7 8 7 6 6 7 7 6 6 5
4 3 3 3 3 4 4 4 3 4 4 4 4 4 4 4 4 4 3 4 4 5 6 4 4 4 5 6 7 7 6 7 7 7 7 7 6 5
4 2 3 3 4 4 4 4 4 4 4 4 4 4 4 5 5 4 4 3 5 5 5 5 5 5 4 3 5 6 6 6 7 7 6 6 7 6
2 3 3 4 4 4 4 4 4 4 4 4 4 4 4 4 4 5 4 4 5 5 5 4 4 4 6 7 6 4 5 7 7 6 5 5 6 7
2 3 4 4 4 4 4 4 4 4 4 4 4 4 4 4 4 4 4 4 5 5 5 4 4 4 5 6 7 7 8 7 6 6 6 5 5 7
3 3 4 4 4 4 4 4 4 4 4 4 4 4 4 4 4 4 4 6 6 4 5 5 5 8 5 4 5 6 6 7 7 6 6 5 5 5
4 4 4 4 4 4 4 4 4 4 4 4 4 4 4 4 4 5 4 4 4 4 5 5 6 5 3 3 5 6 7 8 8 9 8 6 4 4
4 4 4 4 4 4 4 4 4 4 4 3 3 4 3 3 3 3 4 4 4 5 5 5 5 3 3 3 4 5 7 8 6 6 6 9 8 7
Wind_Direction
216 226 250 265 256 247 242 235 257 288 289 280 288 299 306 303 309 309 304 311 314 313 311 309 307 306 304 302 301 299 297 294 292 290 288 287 285 283
221 222 257 267 271 266 254 258 248 257 277 282 281 293 302 307 311 307 300 311 310 310 309 307 307 306 304 303 301 299 297 294 292 289 286 286 284 284
262 251 267 273 276 280 273 267 264 257 272 285 283 291 290 297 303 299 297 294 298 304 305 305 306 305 305 303 301 300 298 295 293 290 287 287 286 285
256 262 273 283 280 279 274 270 270 265 267 284 292 293 288 292 295 296 300 299 292 300 303 304 304 304 305 304 304 302 300 298 295 292 290 289 288 284
256 261 274 274 275 275 273 272 274 280 269 273 284 287 287 292 298 294 291 290 295 300 302 304 304 305 306 305 304 303 300 297 294 292 291 290 289 287
275 271 274 268 268 272 275 273 278 281 279 278 284 289 290 292 294 298 303 300 299 301 301 303 304 305 305 305 305 303 301 299 296 293 291 289 287 287
293 286 282 290 290 289 290 283 284 283 286 287 287 292 294 301 299 295 298 302 296 289 298 300 300 296 298 301 303 303 301 300 298 295 292 290 289 287
289 297 298 300 301 304 304 300 294 287 285 282 284 285 288 289 291 293 295 303 301 298 304 299 296 295 295 291 301 305 305 304 301 296 293 292 290 288
285 292 302 303 306 293 294 298 296 294 289 281 279 280 283 283 286 287 286 287 285 294 301 293 294 293 295 298 304 305 306 306 308 305 298 294 292 288
286 281 283 287 287 292 288 292 290 288 285 281 271 273 277 277 272 277 284 288 282 279 275 282 291 292 297 295 301 304 306 307 308 307 304 302 299 295
286 285 286 283 293 304 302 297 297 294 296 295 292 292 294 294 293 291 292 294 295 292 266 270 291 300 293 285 291 302 306 309 309 307 306 303 300 297
294 291 295 298 302 307 301 293 293 294 298 303 301 300 296 294 297 281 274 281 290 291 273 280 290 312 305 282 282 293 298 304 308 309 307 304 303 297
292 296 294 304 307 308 308 293 291 300 298 296 296 295 295 291 285 274 261 259 270 272 278 286 288 291 283 296 296 288 288 295 300 302 304 304 304 300
288 288 290 303 307 310 308 306 310 316 305 299 298 296 297 295 293 288 278 265 256 264 274 274 276 286 291 293 295 296 295 294 294 294 296 304 303 303
286 291 301 308 312 309 308 313 317 310 299 297 296 296 295 293 295 297 293 285 280 272 272 270 272 279 279 283 289 295 304 303 294 296 302 301 296 296
301 301 309 312 311 308 310 313 310 296 295 288 293 294 297 299 297 298 300 307 305 299 286 276 272 272 283 284 284 292 298 297 304 304 303 300 298 294
309 308 310 310 310 308 307 305 302 301 302 296 296 303 304 303 302 302 297 305 299 303 310 307 296 282 274 279 286 290 296 298 299 304 306 304 302 298
324 306 300 298 297 300 305 307 304 301 300 300 299 299 302 304 306 307 304 302 301 301 301 307 318 322 315 286 262 281 293 298 304 306 303 304 309 312
320 298 295 295 296 297 297 298 299 300 299 296 295 295 298 301 304 305 306 307 303 302 304 306 311 314 317 316 303 287 297 304 307 309 306 303 304 310
301 294 295 296 295 292 291 293 295 299 297 294 291 292 292 295 300 303 304 303 305 308 311 313 312 309 302 300 300 303 306 301 304 308 309 306 300 304
300 294 292 292 291 289 286 287 287 287 289 292 291 293 293 295 299 301 302 305 308 308 311 311 302 306 297 294 299 305 312 318 313 308 310 313 319 328
296 296 296 292 289 287 286 287 289 287 288 287 288 290 290 290 293 300 302 303 303 301 302 304 309 316 315 307 307 310 316 324 333 336 333 324 320 322
296 295 294 293 290 286 283 284 286 286 286 286 288 287 288 291 294 296 300 301 300 303 308 314 318 319 315 308 309 314 320 327 333 342 344 351 351 341